Погода в Китве-Нкана

Замбия     12°49′00″S   28°12′48″E
темп.,
°C
ветер,
м/с
пор.,
м/с
влажн.,
%
обл.,
%
осадки,
мм/ч
давл.,
гПа
погр.,
м
3 марта, ср
ср323:00+18ююв1395100 0.0 101391
02:00+17юв139699 3.9 101391
05:00+17ю1197100 1.6 101287
08:00+19юв2593100 1.9 1014428
11:00+21в2488100 0.2 1013499
14:00+24св127996 0.6 1009756
17:00+24св017974 2.1 1007698
20:00+20зюз019173 3.3 101039
4 марта, чт
чт423:00+19ссв0193100 1.3 101342
02:00+18ссз1195100 2.4 101244
05:00+17зсз2397100 1.1 1011121
08:00+19сз3694100 1.3 1013430
11:00+23сз3576100 0.5 1011855
14:00+26ссз2265100 0.9 10071257
17:00+23ссз238392 1.1 1006502
20:00+20ссв129195 1.6 101064
5 марта, пт
пт523:00+18ссв2293100 0.6 101261
02:00+17с279792 1.0 1011275
05:00+17сз259697 0.1 1011173
08:00+19сз379389 0.4 1013424
11:00+24з237575 1.1 1012810
14:00+26сз236465 3.1 10081204
17:00+24з248443 2.8 1007671
20:00+20зюз128771 6.6 101168
6 марта, сб
сб623:00+19ююв2494100 1.4 1013153
02:00+18юв1196100 3.9 101254
05:00+18ссв1296100 2.0 101372
08:00+19ссз1293100 2.1 1015196
11:00+23ссз228394 1.9 1014688
14:00+24з238196 5.8 1010768
17:00+24з138487 1.5 1009576
20:00+20ююз128683 4.4 101243
7 марта, вс
вс723:00+19юв2394100 4.2 1014153
02:00+18юв2397100 6.7 1013165
05:00+18в1196100 1.6 101380
08:00+18в2496100 3.6 1014206
11:00+18всв2395100 2.4 1015203
14:00+18вюв2596100 5.9 1013374
17:00+18вюв2496100 2.8 1012290
20:00+17с2396100 3.3 1013117